SCP
0 0 0 0 0 0 0 0 0 0 0 0 0 0 0 0 0 0 0 0 0 0 0 0 0 0 0 0 0 0 0 0 -0 -0 0 1 0 0 0 0 0 0 0 0
0 0 0 0 0 0 0 0 0 0 0 0 0 0 0 0 0 0 0 0 0 0 0 0 0 0 0 0 0 0 0 0 0 -0 0 0 0 0 -0 -0 0 0 0 0
0 0 0 0 0 0 0 0 0 0 0 0 0 0 0 0 0 0 0 0 0 0 0 0 0 0 0 0 0 0 0 0 0 0 0 -0 -0 -1 1 0 0 1 1 0
0 0 0 0 0 0 0 0 0 0 0 0 0 0 0 0 0 0 0 0 0 0 0 0 0 0 0 0 0 0 0 0 0 0 0 0 -0 -0 -0 -1 -1 1 1 1
0 0 0 0 0 0 0 0 0 0 0 0 0 0 0 0 0 0 0 0 0 0 0 0 0 0 0 0 0 0 0 0 0 0 0 0 0 0 0 0 1 1 2 2
0 0 0 0 0 0 0 0 0 0 0 0 -0 0 0 0 0 0 0 0 0 0 0 0 0 0 0 0 0 0 0 0 0 0 0 0 0 0 0 1 2 1 1 3
0 0 0 0 0 0 0 0 0 0 0 0 0 0 0 0 0 0 0 0 0 0 0 0 0 0 0 0 0 0 0 0 0 0 0 0 0 0 1 1 0 1 1 2
0 0 0 0 0 0 0 0 0 0 0 0 0 0 0 0 0 0 0 0 0 0 0 0 0 0 0 0 0 0 0 0 0 0 0 0 0 0 0 0 0 0 1 2
0 0 0 0 0 0 0 0 0 0 0 0 0 0 0 0 -0 -0 0 0 0 0 0 0 0 0 0 0 0 0 0 0 0 0 0 0 0 0 0 1 2 1 3 2
0 0 0 0 0 0 0 0 0 0 0 0 0 0 0 0 0 0 0 0 0 0 0 0 0 0 0 0 0 0 0 0 0 0 0 0 0 0 0 0 1 2 4 4
0 0 0 0 0 0 0 0 0 0 0 0 0 0 0 0 0 0 0 0 0 0 0 0 0 0 0 0 0 0 0 -0 -0 -0 0 0 0 0 0 0 0 1 3 2
0 0 0 0 0 0 0 0 0 0 0 0 0 0 0 0 0 0 0 0 0 0 0 0 0 0 0 0 0 0 -0 -0 -0 -0 -0 0 0 0 0 0 0 1 2 1
0 0 0 0 0 0 0 0 0 0 0 0 0 0 0 0 0 0 0 0 0 0 0 0 0 0 0 0 0 0 -0 -0 -0 -0 -0 0 0 0 0 0 1 1 1 1
0 0 0 0 0 0 0 0 0 0 0 0 0 0 -0 -0 0 0 0 0 0 0 0 0 0 0 0 0 0 0 -0 -0 -0 -0 0 0 0 0 0 1 1 1 0 1
0 0 0 0 0 0 0 0 0 0 0 0 0 -0 -0 0 0 0 0 0 0 0 0 0 0 0 0 0 0 -0 -0 0 0 0 0 0 0 0 0 1 1 1 1 1
0 0 0 -0 0 0 0 -0 -0 0 -0 -0 -0 -0 -0 0 0 0 0 0 0 0 0 0 0 0 0 0 0 -0 0 0 0 0 0 0 0 0 0 1 1 1 0 1
0 0 0 0 0 0 0 -0 0 0 0 -0 -0 -0 0 0 0 0 0 0 0 0 0 0 0 0 0 0 -0 -0 -0 -0 0 -0 0 0 0 0 0 1 0 1 1 2
0 0 0 0 0 0 -0 0 0 0 0 0 0 0 0 0 0 0 0 0 0 0 0 0 -0 -0 -0 -0 0 0 -0 0 0 0 -0 0 0 0 0 1 1 1 3 4
-0 -0 0 0 0 -0 -0 0 0 0 0 0 0 0 0 0 0 -0 -0 0 0 -0 -0 -0 -0 -0 -0 -0 -0 -0 -0 -0 0 0 0 0 0 0 1 1 1 4 4 5
0 0 0 0 0 0 0 0 0 0 0 0 0 0 0 0 -0 -0 0 0 0 -0 -0 -0 -0 -0 -0 -0 0 -0 -0 -0 -0 0 0 0 0 0 1 1 4 5 5 4
-0 0 -0 -0 0 -0 0 0 0 0 0 0 0 0 0 0 -0 -0 -0 -0 -0 -0 -0 -0 -0 -0 -0 -0 -0 -0 -0 -0 -0 0 0 0 0 1 1 3 4 4 5 5
-0 -0 0 0 0 0 0 0 0 0 0 0 0 0 0 -0 -0 -0 -0 -0 -0 -0 -0 -0 -0 0 0 -0 0 -0 -0 0 0 0 0 1 2 2 2 2 4 4 5 5
0 0 -0 0 0 -0 0 0 0 0 0 0 0 -0 0 -0 -0 -0 -0 -0 -0 -0 0 -0 -0 0 0 -0 0 -0 -0 0 0 1 2 2 2 2 3 3 4 4 4 3
0 -0 0 0 0 0 0 -0 0 0 -0 -0 -0 -0 -0 -0 0 0 -0 -0 -0 0 0 0 0 0 -0 -0 -0 0 0 0 0 0 1 2 3 3 3 4 4 4 3 2
-0 0 0 0 0 -0 0 0 -0 0 -0 -0 -0 -0 -0 -0 0 0 0 0 0 0 0 0 -0 -0 -0 -0 0 0 0 0 0 1 0 1 2 2 2 2 3 2 2 1
0 0 0 0 0 0 0 0 -0 -0 -0 -0 -0 0 0 -0 0 -0 -0 -0 -0 -0 0 0 -0 -0 0 0 0 0 0 0 0 0 0 0 0 0 1 1 0 0 0 0
Wind_Speed_500mb
12 18 21 16 6 15 18 19 23 20 15 24 32 35 37 43 45 50 48 45 42 30 21 21 14 12 14 19 18 14 33 69 83 66 32 26 29 40 48 48 65 67 100 80
17 27 19 9 12 17 21 25 27 18 20 22 32 40 40 41 45 45 42 47 46 37 30 22 13 9 12 14 19 21 19 33 72 82 88 71 63 44 42 47 53 72 87 86
20 10 3 17 19 22 26 25 23 25 25 32 38 41 40 19 22 26 34 24 30 22 13 7 8 10 14 15 18 17 22 26 33 69 89 106 76 75 72 64 71 66 81 83
17 11 16 18 20 16 27 11 17 24 26 25 14 20 22 22 24 9 11 11 15 11 4 4 7 10 16 19 21 24 24 23 20 31 53 80 97 79 98 79 85 60 65 80
18 19 25 25 26 22 29 7 24 26 31 35 38 23 29 6 19 12 10 4 4 9 9 9 11 13 17 21 27 31 31 29 26 30 38 46 61 89 85 83 67 62 66 54
37 31 19 30 20 19 18 23 31 33 26 28 39 30 20 14 16 24 18 15 7 11 12 11 12 20 24 24 24 28 34 37 37 38 38 47 59 61 58 55 60 87 61 48
38 38 35 22 28 18 22 27 22 23 21 22 12 13 24 11 10 7 21 24 20 18 15 16 25 27 25 30 32 31 27 34 43 46 49 46 55 64 69 69 60 60 49 48
32 31 31 27 33 31 22 21 21 26 23 18 7 14 1 7 9 20 23 13 10 15 15 25 33 29 31 33 35 40 41 40 41 48 52 56 56 58 57 63 63 55 51 52
16 30 12 11 16 20 22 20 18 31 35 30 26 26 23 27 16 16 18 9 17 12 26 33 30 28 31 35 36 38 45 52 50 47 53 56 60 65 70 70 67 58 63 51
23 25 31 17 12 30 31 21 14 18 16 28 21 23 16 21 7 7 13 24 26 27 41 42 39 37 34 35 40 45 48 53 56 57 53 54 55 59 70 75 76 73 69 71
22 20 26 14 27 32 19 26 23 22 23 21 24 8 16 6 13 20 20 26 26 44 45 42 40 41 45 44 43 49 54 56 53 57 59 56 58 60 62 72 80 81 74 70
24 14 25 34 26 21 27 35 33 23 30 28 25 29 10 6 12 16 32 45 51 44 43 40 43 43 42 45 51 54 57 59 55 58 60 58 60 58 62 67 78 81 81 76
11 18 22 29 25 9 21 33 32 32 32 33 26 24 4 19 30 41 40 41 42 44 43 42 40 40 40 44 48 58 62 63 56 58 61 63 64 65 61 66 72 78 81 75
4 30 33 29 31 10 15 20 24 34 24 31 40 51 44 42 40 34 39 41 40 42 39 39 39 45 49 50 54 59 66 62 58 60 61 62 63 70 66 64 71 71 64 58
20 36 36 43 42 41 47 45 45 43 49 48 52 56 48 46 41 43 47 46 40 42 43 45 51 59 62 58 62 64 65 59 62 65 64 66 64 69 70 65 68 64 64 61
33 44 45 50 42 37 41 46 51 53 56 58 57 60 49 57 55 35 43 39 45 46 48 52 57 60 56 61 66 64 68 63 67 75 71 68 68 65 70 67 68 67 67 63
27 19 24 34 33 23 28 45 51 51 50 47 47 47 37 28 31 30 41 50 54 52 55 57 64 59 61 65 66 67 72 70 75 75 75 76 72 70 70 65 68 74 74 71
38 27 15 18 23 25 31 15 21 27 28 26 31 34 33 34 32 41 52 61 53 54 57 67 67 63 66 67 68 74 86 79 86 102 98 79 69 71 67 69 74 76 78 84
37 30 11 12 19 32 42 21 18 23 35 32 28 26 27 39 54 58 63 43 50 61 63 64 63 66 70 72 70 88 89 89 103 103 83 71 63 68 67 75 78 80 83 82
9 4 10 10 11 10 2 2 15 21 30 23 20 26 35 51 39 37 58 59 65 67 67 68 69 72 71 74 76 80 86 93 106 72 60 69 67 69 77 80 82 85 87 83
3 5 26 27 15 17 12 16 13 13 13 50 52 54 57 37 45 69 66 70 69 72 72 71 71 74 72 74 75 87 76 93 84 93 88 71 73 84 83 84 88 87 83 78
6 5 8 10 9 11 20 33 18 37 57 59 63 57 58 66 71 70 73 74 79 74 74 72 74 76 72 76 80 83 86 104 104 38 71 75 83 85 88 88 86 88 88 83
6 8 9 9 10 36 38 36 47 45 50 60 62 70 63 75 80 75 79 84 87 87 83 75 74 79 77 76 68 71 78 84 84 70 60 73 83 84 87 94 91 85 78 87
10 14 12 19 4 26 45 58 46 49 61 67 73 77 76 77 83 89 86 86 90 90 74 67 77 78 74 61 52 64 61 56 43 52 34 59 71 77 79 80 77 76 74 74
15 19 17 28 35 47 35 44 64 68 72 72 79 79 81 82 88 81 78 79 81 81 78 72 75 74 66 53 46 49 46 32 16 31 23 40 64 77 81 74 64 61 68 85
10 6 7 12 49 45 53 72 77 78 75 78 78 90 78 60 74 79 75 67 66 67 62 51 50 53 48 40 41 34 32 15 7 18 30 47 59 74 78 80 74 69 70 66
Wind_Direction_500mb
191 262 229 252 263 307 283 270 268 273 276 281 275 275 273 269 264 261 254 248 251 245 239 222 226 243 239 250 259 263 216 251 260 259 267 283 275 277 255 261 259 240 249 256
238 241 263 254 250 258 252 261 264 279 263 281 283 277 280 269 263 258 261 251 240 235 214 222 256 284 289 272 275 267 257 223 230 252 253 269 281 278 279 276 257 249 249 247
272 8 178 216 239 252 247 263 282 289 302 277 269 276 254 246 250 248 259 260 236 221 232 225 278 313 327 328 295 280 273 247 240 240 239 254 265 273 268 272 281 256 242 241
262 181 220 235 257 261 273 267 278 280 283 285 321 287 282 267 248 248 169 176 196 219 219 280 295 307 315 305 308 300 287 291 265 241 238 231 253 263 270 269 269 263 248 233
248 211 218 248 269 288 269 272 278 282 282 284 269 257 271 222 204 187 184 103 289 282 242 254 290 310 315 311 307 303 299 288 289 272 250 238 232 239 250 242 245 270 253 232
256 262 256 264 286 269 275 266 262 259 263 262 254 248 264 188 227 167 187 328 249 274 281 251 274 297 297 300 300 300 294 288 281 275 266 253 242 239 240 243 235 236 241 238
238 237 237 251 250 212 241 258 272 263 214 253 90 272 258 260 253 234 307 293 263 272 260 271 302 298 295 299 302 302 298 293 294 281 266 259 252 246 244 243 239 238 238 231
273 260 207 209 236 265 250 255 273 282 273 278 240 260 153 42 257 298 285 289 264 233 282 287 296 289 294 300 307 305 309 305 299 287 269 262 257 253 250 250 242 241 239 236
266 254 206 252 240 239 264 230 286 282 268 267 258 254 240 220 222 223 240 227 272 267 301 299 297 283 284 295 297 301 304 302 301 294 280 265 261 258 252 244 241 247 244 238
271 272 258 245 232 245 250 276 223 212 264 261 253 257 267 189 307 250 243 259 277 271 305 302 298 293 284 291 295 300 296 300 293 294 283 273 268 262 257 253 246 244 247 245
267 251 268 205 235 256 187 228 228 279 256 261 279 273 80 240 283 297 292 289 277 297 294 289 290 291 290 292 294 295 297 299 289 287 285 275 270 264 260 252 246 242 245 248
240 275 265 263 273 264 258 273 242 232 236 227 263 277 354 13 330 296 271 278 284 286 283 280 286 289 286 287 298 298 296 294 287 284 278 273 266 263 260 255 245 240 242 245
236 242 262 252 210 232 242 244 248 248 251 259 269 255 233 228 302 302 298 293 281 279 281 285 287 282 283 285 295 301 298 290 274 280 271 267 264 260 255 255 247 240 241 243
283 262 257 268 290 274 248 263 243 239 234 242 254 276 273 284 297 298 301 294 280 277 276 283 287 285 285 286 291 301 297 286 277 280 274 266 265 260 255 253 246 239 231 225
228 259 260 266 272 273 276 269 264 237 235 253 274 271 276 281 290 297 294 293 285 273 276 282 289 292 286 283 292 296 298 286 280 284 275 267 263 257 252 251 245 237 227 221
257 262 264 267 267 262 268 267 263 256 256 259 262 268 276 277 274 279 299 292 290 285 284 290 297 299 287 284 289 295 299 289 281 284 273 268 262 256 248 242 235 227 220 213
250 253 263 259 261 273 258 253 249 251 252 254 258 263 273 296 289 295 300 294 290 289 288 290 295 292 290 290 292 293 294 288 284 280 275 268 259 254 245 236 224 215 209 201
250 247 266 275 289 259 259 262 266 275 275 276 259 262 269 286 296 296 299 293 288 285 296 299 294 291 294 292 290 288 297 289 284 284 277 259 248 244 238 224 213 205 197 188
230 235 242 250 243 268 288 295 268 296 282 299 290 283 318 308 297 288 282 306 305 301 296 294 295 292 296 292 290 292 294 288 289 279 268 248 242 234 222 210 202 194 183 181
224 283 213 223 245 264 90 66 328 307 275 53 2 306 301 306 295 292 312 312 301 297 294 295 296 295 295 293 295 291 289 289 291 281 262 252 231 224 208 197 189 181 178 174
85 163 215 228 252 280 336 11 338 266 325 320 314 306 304 298 294 302 299 298 292 290 292 295 296 294 296 295 299 296 295 295 306 278 268 220 203 192 189 182 177 169 166 162
247 266 185 218 252 272 7 335 317 316 311 313 309 306 300 294 295 295 296 297 294 292 292 293 295 295 297 298 301 298 306 307 319 74 147 158 167 171 176 168 163 163 158 160
290 341 306 285 281 324 322 311 307 304 293 291 290 297 295 291 291 294 298 298 295 292 291 290 293 294 295 296 300 301 307 328 347 36 115 140 155 155 158 161 156 155 153 160
318 317 267 311 276 310 313 308 304 306 301 302 302 299 295 293 292 298 300 298 296 294 290 288 292 288 290 295 299 300 316 339 358 18 99 133 141 147 150 151 154 152 155 152
298 315 330 289 292 330 297 301 304 301 301 299 305 304 302 300 295 297 292 290 287 284 284 286 283 283 284 290 296 308 315 339 2 7 108 132 141 142 145 141 140 149 154 159
32 340 289 291 304 291 286 297 299 296 308 312 311 304 299 296 290 292 289 285 285 286 285 281 278 277 282 284 293 300 309 328 344 352 138 150 151 148 148 141 132 138 146 146
Wind_Speed_850mb
12 18 21 16 6 15 18 19 23 20 15 24 32 35 37 43 45 50 48 45 42 30 21 21 14 12 14 19 18 14 33 69 83 66 32 26 29 40 48 48 65 67 100 80
17 27 19 9 12 17 21 25 27 18 20 22 32 40 40 41 45 45 42 47 46 37 30 22 13 9 12 14 19 21 19 33 72 82 88 71 63 44 42 47 53 72 87 86
20 10 3 17 19 22 26 25 23 25 25 32 38 41 40 19 22 26 34 24 30 22 13 7 8 10 14 15 18 17 22 26 33 69 89 106 76 75 72 64 71 66 81 83
17 11 16 18 20 16 27 11 17 24 26 25 14 20 22 22 24 9 11 11 15 11 4 4 7 10 16 19 21 24 24 23 20 31 53 80 97 79 98 79 85 60 65 80
18 19 25 25 26 22 29 7 24 26 31 35 38 23 29 6 19 12 10 4 4 9 9 9 11 13 17 21 27 31 31 29 26 30 38 46 61 89 85 83 67 62 66 54
37 31 19 30 20 19 18 23 31 33 26 28 39 30 20 14 16 24 18 15 7 11 12 11 12 20 24 24 24 28 34 37 37 38 38 47 59 61 58 55 60 87 61 48
38 38 35 22 28 18 22 27 22 23 21 22 12 13 24 11 10 7 21 24 20 18 15 16 25 27 25 30 32 31 27 34 43 46 49 46 55 64 69 69 60 60 49 48
32 31 31 27 33 31 22 21 21 26 23 18 7 14 1 7 9 20 23 13 10 15 15 25 33 29 31 33 35 40 41 40 41 48 52 56 56 58 57 63 63 55 51 52
16 30 12 11 16 20 22 20 18 31 35 30 26 26 23 27 16 16 18 9 17 12 26 33 30 28 31 35 36 38 45 52 50 47 53 56 60 65 70 70 67 58 63 51
23 25 31 17 12 30 31 21 14 18 16 28 21 23 16 21 7 7 13 24 26 27 41 42 39 37 34 35 40 45 48 53 56 57 53 54 55 59 70 75 76 73 69 71
22 20 26 14 27 32 19 26 23 22 23 21 24 8 16 6 13 20 20 26 26 44 45 42 40 41 45 44 43 49 54 56 53 57 59 56 58 60 62 72 80 81 74 70
24 14 25 34 26 21 27 35 33 23 30 28 25 29 10 6 12 16 32 45 51 44 43 40 43 43 42 45 51 54 57 59 55 58 60 58 60 58 62 67 78 81 81 76
11 18 22 29 25 9 21 33 32 32 32 33 26 24 4 19 30 41 40 41 42 44 43 42 40 40 40 44 48 58 62 63 56 58 61 63 64 65 61 66 72 78 81 75
4 30 33 29 31 10 15 20 24 34 24 31 40 51 44 42 40 34 39 41 40 42 39 39 39 45 49 50 54 59 66 62 58 60 61 62 63 70 66 64 71 71 64 58
20 36 36 43 42 41 47 45 45 43 49 48 52 56 48 46 41 43 47 46 40 42 43 45 51 59 62 58 62 64 65 59 62 65 64 66 64 69 70 65 68 64 64 61
33 44 45 50 42 37 41 46 51 53 56 58 57 60 49 57 55 35 43 39 45 46 48 52 57 60 56 61 66 64 68 63 67 75 71 68 68 65 70 67 68 67 67 63
27 19 24 34 33 23 28 45 51 51 50 47 47 47 37 28 31 30 41 50 54 52 55 57 64 59 61 65 66 67 72 70 75 75 75 76 72 70 70 65 68 74 74 71
38 27 15 18 23 25 31 15 21 27 28 26 31 34 33 34 32 41 52 61 53 54 57 67 67 63 66 67 68 74 86 79 86 102 98 79 69 71 67 69 74 76 78 84
37 30 11 12 19 32 42 21 18 23 35 32 28 26 27 39 54 58 63 43 50 61 63 64 63 66 70 72 70 88 89 89 103 103 83 71 63 68 67 75 78 80 83 82
9 4 10 10 11 10 2 2 15 21 30 23 20 26 35 51 39 37 58 59 65 67 67 68 69 72 71 74 76 80 86 93 106 72 60 69 67 69 77 80 82 85 87 83
3 5 26 27 15 17 12 16 13 13 13 50 52 54 57 37 45 69 66 70 69 72 72 71 71 74 72 74 75 87 76 93 84 93 88 71 73 84 83 84 88 87 83 78
6 5 8 10 9 11 20 33 18 37 57 59 63 57 58 66 71 70 73 74 79 74 74 72 74 76 72 76 80 83 86 104 104 38 71 75 83 85 88 88 86 88 88 83
6 8 9 9 10 36 38 36 47 45 50 60 62 70 63 75 80 75 79 84 87 87 83 75 74 79 77 76 68 71 78 84 84 70 60 73 83 84 87 94 91 85 78 87
10 14 12 19 4 26 45 58 46 49 61 67 73 77 76 77 83 89 86 86 90 90 74 67 77 78 74 61 52 64 61 56 43 52 34 59 71 77 79 80 77 76 74 74
15 19 17 28 35 47 35 44 64 68 72 72 79 79 81 82 88 81 78 79 81 81 78 72 75 74 66 53 46 49 46 32 16 31 23 40 64 77 81 74 64 61 68 85
10 6 7 12 49 45 53 72 77 78 75 78 78 90 78 60 74 79 75 67 66 67 62 51 50 53 48 40 41 34 32 15 7 18 30 47 59 74 78 80 74 69 70 66
Wind_Direction_850mb
191 262 229 252 263 307 283 270 268 273 276 281 275 275 273 269 264 261 254 248 251 245 239 222 226 243 239 250 259 263 216 251 260 259 267 283 275 277 255 261 259 240 249 256
238 241 263 254 250 258 252 261 264 279 263 281 283 277 280 269 263 258 261 251 240 235 214 222 256 284 289 272 275 267 257 223 230 252 253 269 281 278 279 276 257 249 249 247
272 8 178 216 239 252 247 263 282 289 302 277 269 276 254 246 250 248 259 260 236 221 232 225 278 313 327 328 295 280 273 247 240 240 239 254 265 273 268 272 281 256 242 241
262 181 220 235 257 261 273 267 278 280 283 285 321 287 282 267 248 248 169 176 196 219 219 280 295 307 315 305 308 300 287 291 265 241 238 231 253 263 270 269 269 263 248 233
248 211 218 248 269 288 269 272 278 282 282 284 269 257 271 222 204 187 184 103 289 282 242 254 290 310 315 311 307 303 299 288 289 272 250 238 232 239 250 242 245 270 253 232
256 262 256 264 286 269 275 266 262 259 263 262 254 248 264 188 227 167 187 328 249 274 281 251 274 297 297 300 300 300 294 288 281 275 266 253 242 239 240 243 235 236 241 238
238 237 237 251 250 212 241 258 272 263 214 253 90 272 258 260 253 234 307 293 263 272 260 271 302 298 295 299 302 302 298 293 294 281 266 259 252 246 244 243 239 238 238 231
273 260 207 209 236 265 250 255 273 282 273 278 240 260 153 42 257 298 285 289 264 233 282 287 296 289 294 300 307 305 309 305 299 287 269 262 257 253 250 250 242 241 239 236
266 254 206 252 240 239 264 230 286 282 268 267 258 254 240 220 222 223 240 227 272 267 301 299 297 283 284 295 297 301 304 302 301 294 280 265 261 258 252 244 241 247 244 238
271 272 258 245 232 245 250 276 223 212 264 261 253 257 267 189 307 250 243 259 277 271 305 302 298 293 284 291 295 300 296 300 293 294 283 273 268 262 257 253 246 244 247 245
267 251 268 205 235 256 187 228 228 279 256 261 279 273 80 240 283 297 292 289 277 297 294 289 290 291 290 292 294 295 297 299 289 287 285 275 270 264 260 252 246 242 245 248
240 275 265 263 273 264 258 273 242 232 236 227 263 277 354 13 330 296 271 278 284 286 283 280 286 289 286 287 298 298 296 294 287 284 278 273 266 263 260 255 245 240 242 245
236 242 262 252 210 232 242 244 248 248 251 259 269 255 233 228 302 302 298 293 281 279 281 285 287 282 283 285 295 301 298 290 274 280 271 267 264 260 255 255 247 240 241 243
283 262 257 268 290 274 248 263 243 239 234 242 254 276 273 284 297 298 301 294 280 277 276 283 287 285 285 286 291 301 297 286 277 280 274 266 265 260 255 253 246 239 231 225
228 259 260 266 272 273 276 269 264 237 235 253 274 271 276 281 290 297 294 293 285 273 276 282 289 292 286 283 292 296 298 286 280 284 275 267 263 257 252 251 245 237 227 221
257 262 264 267 267 262 268 267 263 256 256 259 262 268 276 277 274 279 299 292 290 285 284 290 297 299 287 284 289 295 299 289 281 284 273 268 262 256 248 242 235 227 220 213
250 253 263 259 261 273 258 253 249 251 252 254 258 263 273 296 289 295 300 294 290 289 288 290 295 292 290 290 292 293 294 288 284 280 275 268 259 254 245 236 224 215 209 201
250 247 266 275 289 259 259 262 266 275 275 276 259 262 269 286 296 296 299 293 288 285 296 299 294 291 294 292 290 288 297 289 284 284 277 259 248 244 238 224 213 205 197 188
230 235 242 250 243 268 288 295 268 296 282 299 290 283 318 308 297 288 282 306 305 301 296 294 295 292 296 292 290 292 294 288 289 279 268 248 242 234 222 210 202 194 183 181
224 283 213 223 245 264 90 66 328 307 275 53 2 306 301 306 295 292 312 312 301 297 294 295 296 295 295 293 295 291 289 289 291 281 262 252 231 224 208 197 189 181 178 174
85 163 215 228 252 280 336 11 338 266 325 320 314 306 304 298 294 302 299 298 292 290 292 295 296 294 296 295 299 296 295 295 306 278 268 220 203 192 189 182 177 169 166 162
247 266 185 218 252 272 7 335 317 316 311 313 309 306 300 294 295 295 296 297 294 292 292 293 295 295 297 298 301 298 306 307 319 74 147 158 167 171 176 168 163 163 158 160
290 341 306 285 281 324 322 311 307 304 293 291 290 297 295 291 291 294 298 298 295 292 291 290 293 294 295 296 300 301 307 328 347 36 115 140 155 155 158 161 156 155 153 160
318 317 267 311 276 310 313 308 304 306 301 302 302 299 295 293 292 298 300 298 296 294 290 288 292 288 290 295 299 300 316 339 358 18 99 133 141 147 150 151 154 152 155 152
298 315 330 289 292 330 297 301 304 301 301 299 305 304 302 300 295 297 292 290 287 284 284 286 283 283 284 290 296 308 315 339 2 7 108 132 141 142 145 141 140 149 154 159
32 340 289 291 304 291 286 297 299 296 308 312 311 304 299 296 290 292 289 285 285 286 285 281 278 277 282 284 293 300 309 328 344 352 138 150 151 148 148 141 132 138 146 146